GEESAT 2-05

Satellite information

Favourite Embed

Satellite Type and Status

PAYLOADIN ORBIT

Key statistics

Satellite GEESAT 2-05 at a glance.

Uptime

683

Days in orbit

Revolutions

≈ 14.8

Per day

Orbit

LEO

Low Earth Orbit

Inclination

50.0

Latest

Satellite identification and parameters

Extended collection of information and parameters for GEESAT 2-05.

Object identification

Identified? True

Debris? False

Object name: GEESAT 2-05

International designator: 2024-023E

Object number (NORAD): 58909

Object ID (CCSDS): 58909

Country: PEOPLES REPUBLIC OF CHINA (PRC)

Current information (Y/N): Y

RCS size: MEDIUM

Orbital parameters

Period: 97.133 minutes

Inclination: 50.003 deg

SMA: 6999.563 km

Apoapsis: 629.103 km

Periapsis: 613.752 km

RAAN: 122.4803 deg

Eccentricy: 0.00109656

Argument of periapsis: 82.1367 deg

Mean anomaly: 278.0815 deg

Mean motion: 14.82505765 rev/day

Mean motion (dot): 0.00001773 rev/day2

B* drag term: 0.00024615629 1/REarth

Two-line elements (TLE)

Creation date: Dec. 16, 2025, 2:19 a.m.

Reference frame: TEME

Reference center: EARTH

Epoch: Dec. 15, 2025, 10:23 p.m. UTC

TLE line 0: 0 GEESAT 2-05

TLE line 1: 1 58909U 24023E 25349.93312994 .00001773 00000-0 24616-3 0 9995

TLE line 2: 2 58909 50.0030 122.4803 0010966 82.1367 278.0815 14.82505765101725

Live tracking on map

Real-time ground track for satellite GEESAT 2-05.

In-orbit conjunctions

There are no conjunctions computed for GEESAT 2-05, at the moment. Check back to stay up to date, as we update our databases every day.

Go to all conjunctions

Associated space launch

11 LEO communications satellites for Chinese car manufacturer Geely Automotive for testing autonomous driving/inter-vehicle communication services. They also carry payloads for ocean observation.

GEESAT 2-05 was lifted into orbit during the mission ‘Long March 2C | Geely Constellation Group 02’, on board a Long March 2 space rocket.

The launch took place on Feb. 2, 2024, 11:37 p.m. from Launch Complex 3 (LC-3/LA-1).

For more information about the launch, click the button.

Launch to space Long March 2C | Geely Constellation Group 02
Long March 2C | Geely Constellation Group 02

Agency: N/A

Status: Launch Successful

Launch date: Feb. 2, 2024, 11:37 p.m. UTC

Rocket: Long March 2

Launch pad: Launch Complex 3 (LC-3/LA-1)

Location: Xichang Satellite Launch Center, People's Republic of China

...

Latest news about this satellite

News about space launch
China launches 20 satellites on separate inland and sea rocket launches

A pair of Chinese rockets launched 11 mobility services satellites for an automaker and nine further, diverse satellites into orbit late Friday.


Newsletter sign-up

Weekly statistics, charts and insights to help you stay on top of the space industry.